Year,Month,Day,Hour,Minute,Value (Times are PST for temperature in C)
2009,08,22,00,00,12.40
2009,08,22,00,01,12.40
2009,08,22,00,02,12.30
2009,08,22,00,03,12.30
2009,08,22,00,04,12.30
2009,08,22,00,05,12.20
2009,08,22,00,06,12.10
2009,08,22,00,07,12.10
2009,08,22,00,08,12.10
2009,08,22,00,09,12.10
2009,08,22,00,10,12.10
2009,08,22,00,11,12.20
2009,08,22,00,12,12.20
2009,08,22,00,13,12.20
2009,08,22,00,14,12.20
2009,08,22,00,15,12.10
2009,08,22,00,16,12.10
2009,08,22,00,17,12.00
2009,08,22,00,18,11.90
2009,08,22,00,19,11.90
2009,08,22,00,20,11.90
2009,08,22,00,21,11.80
2009,08,22,00,22,11.80
2009,08,22,00,23,11.80
2009,08,22,00,24,11.80
2009,08,22,00,25,11.80
2009,08,22,00,26,11.80
2009,08,22,00,27,11.90
2009,08,22,00,28,11.90
2009,08,22,00,29,12.00
2009,08,22,00,30,12.00
2009,08,22,00,31,12.10
2009,08,22,00,32,12.10
2009,08,22,00,33,12.10
2009,08,22,00,34,12.10
2009,08,22,00,35,12.20
2009,08,22,00,36,12.20
2009,08,22,00,37,12.20
2009,08,22,00,38,12.10
2009,08,22,00,39,12.10
2009,08,22,00,40,12.10
2009,08,22,00,41,12.00
2009,08,22,00,42,12.00
2009,08,22,00,43,12.00
2009,08,22,00,44,12.00
2009,08,22,00,45,11.90
2009,08,22,00,46,11.90
2009,08,22,00,47,11.90
2009,08,22,00,48,11.80
2009,08,22,00,49,11.80
2009,08,22,00,50,11.80
2009,08,22,00,51,11.80
2009,08,22,00,52,11.70
2009,08,22,00,53,11.70
2009,08,22,00,54,11.70
2009,08,22,00,55,11.70
2009,08,22,00,56,11.70
2009,08,22,00,57,11.70
2009,08,22,00,58,11.70
2009,08,22,00,59,11.70
2009,08,22,01,00,11.70
2009,08,22,01,01,11.60
2009,08,22,01,02,11.60
2009,08,22,01,03,11.60
2009,08,22,01,04,11.60
2009,08,22,01,05,11.60
2009,08,22,01,06,11.60
2009,08,22,01,07,11.60
2009,08,22,01,08,11.50
2009,08,22,01,09,11.40
2009,08,22,01,10,11.40
2009,08,22,01,11,11.40
2009,08,22,01,12,11.40
2009,08,22,01,13,11.40
2009,08,22,01,14,11.40
2009,08,22,01,15,11.40
2009,08,22,01,16,11.30
2009,08,22,01,17,11.30
2009,08,22,01,18,11.30
2009,08,22,01,19,11.20
2009,08,22,01,20,11.20
2009,08,22,01,21,11.20
2009,08,22,01,22,11.20
2009,08,22,01,23,11.10
2009,08,22,01,24,11.20
2009,08,22,01,25,11.20
2009,08,22,01,26,11.20
2009,08,22,01,27,11.20
2009,08,22,01,28,11.20
2009,08,22,01,29,11.20
2009,08,22,01,30,11.10
2009,08,22,01,31,11.10
2009,08,22,01,32,11.10
2009,08,22,01,33,11.10
2009,08,22,01,34,11.10
2009,08,22,01,35,11.10
2009,08,22,01,36,11.00
2009,08,22,01,37,10.90
2009,08,22,01,38,10.90
2009,08,22,01,39,10.90
2009,08,22,01,40,10.90
2009,08,22,01,41,10.90
2009,08,22,01,42,10.90
2009,08,22,01,43,10.90
2009,08,22,01,44,10.80
2009,08,22,01,45,10.80
2009,08,22,01,46,10.80
2009,08,22,01,47,10.70
2009,08,22,01,48,10.70
2009,08,22,01,49,10.60
2009,08,22,01,50,10.60
2009,08,22,01,51,10.60
2009,08,22,01,52,10.60
2009,08,22,01,53,10.60
2009,08,22,01,54,10.50
2009,08,22,01,55,10.40
2009,08,22,01,56,10.40
2009,08,22,01,57,10.40
2009,08,22,01,58,10.40
2009,08,22,01,59,10.30
2009,08,22,02,00,10.30
2009,08,22,02,01,10.20
2009,08,22,02,02,10.20
2009,08,22,02,03,10.10
2009,08,22,02,04,10.10
2009,08,22,02,05,10.10
2009,08,22,02,06,10.10
2009,08,22,02,07,10.10
2009,08,22,02,08,10.10
2009,08,22,02,09,10.10
2009,08,22,02,10,10.10
2009,08,22,02,11,10.10
2009,08,22,02,12,9.90
2009,08,22,02,13,9.90
2009,08,22,02,14,9.90
2009,08,22,02,15,9.90
2009,08,22,02,16,9.90
2009,08,22,02,17,9.80
2009,08,22,02,18,9.80
2009,08,22,02,19,9.80
2009,08,22,02,20,9.70
2009,08,22,02,21,9.70
2009,08,22,02,22,9.70
2009,08,22,02,23,9.70
2009,08,22,02,24,9.70
2009,08,22,02,25,9.70
2009,08,22,02,26,9.70
2009,08,22,02,27,9.60
2009,08,22,02,28,9.60
2009,08,22,02,29,9.60
2009,08,22,02,30,9.50
2009,08,22,02,31,9.50
2009,08,22,02,32,9.50
2009,08,22,02,33,9.50
2009,08,22,02,34,9.40
2009,08,22,02,35,9.40
2009,08,22,02,36,9.40
2009,08,22,02,37,9.40
2009,08,22,02,38,9.30
2009,08,22,02,39,9.30
2009,08,22,02,40,9.30
2009,08,22,02,41,9.20
2009,08,22,02,42,9.20
2009,08,22,02,43,9.20
2009,08,22,02,44,9.20
2009,08,22,02,45,9.20
2009,08,22,02,46,9.20
2009,08,22,02,47,9.10
2009,08,22,02,48,9.10
2009,08,22,02,49,9.10
2009,08,22,02,50,9.10
2009,08,22,02,51,9.10
2009,08,22,02,52,9.10
2009,08,22,02,53,9.10
2009,08,22,02,54,9.00
2009,08,22,02,55,9.00
2009,08,22,02,56,9.00
2009,08,22,02,57,9.00
2009,08,22,02,58,8.90
2009,08,22,02,59,8.90
2009,08,22,03,00,8.90
2009,08,22,03,01,8.90
2009,08,22,03,02,8.80
2009,08,22,03,03,8.80
2009,08,22,03,04,8.80
2009,08,22,03,05,8.80
2009,08,22,03,06,8.70
2009,08,22,03,07,8.70
2009,08,22,03,08,8.70
2009,08,22,03,09,8.70
2009,08,22,03,10,8.70
2009,08,22,03,11,8.70
2009,08,22,03,12,8.70
2009,08,22,03,13,8.70
2009,08,22,03,14,8.70
2009,08,22,03,15,8.70
2009,08,22,03,16,8.60
2009,08,22,03,17,8.60
2009,08,22,03,18,8.60
2009,08,22,03,19,8.60
2009,08,22,03,20,8.60
2009,08,22,03,21,8.50
2009,08,22,03,22,8.50
2009,08,22,03,23,8.50
2009,08,22,03,24,8.50
2009,08,22,03,25,8.50
2009,08,22,03,26,8.40
2009,08,22,03,27,8.40
2009,08,22,03,28,8.40
2009,08,22,03,29,8.40
2009,08,22,03,30,8.30
2009,08,22,03,31,8.30
2009,08,22,03,32,8.30
2009,08,22,03,33,8.30
2009,08,22,03,34,8.20
2009,08,22,03,35,8.20
2009,08,22,03,36,8.20
2009,08,22,03,37,8.20
2009,08,22,03,38,8.20
2009,08,22,03,39,8.20
2009,08,22,03,40,8.20
2009,08,22,03,41,8.20
2009,08,22,03,42,8.20
2009,08,22,03,43,8.20
2009,08,22,03,44,8.20
2009,08,22,03,45,8.10
2009,08,22,03,46,8.10
2009,08,22,03,47,8.10
2009,08,22,03,48,8.10
2009,08,22,03,49,8.10
2009,08,22,03,50,8.00
2009,08,22,03,51,8.00
2009,08,22,03,52,8.00
2009,08,22,03,53,8.00
2009,08,22,03,54,8.00
2009,08,22,03,55,8.00
2009,08,22,03,56,8.00
2009,08,22,03,57,8.00
2009,08,22,03,58,8.00
2009,08,22,03,59,8.00
2009,08,22,04,00,7.90
2009,08,22,04,01,7.90
2009,08,22,04,02,7.90
2009,08,22,04,03,7.90
2009,08,22,04,04,7.90
2009,08,22,04,05,7.90
2009,08,22,04,06,7.90
2009,08,22,04,07,7.90
2009,08,22,04,08,7.90
2009,08,22,04,09,7.80
2009,08,22,04,10,7.80
2009,08,22,04,11,7.80
2009,08,22,04,12,7.80
2009,08,22,04,13,7.80
2009,08,22,04,14,7.80
2009,08,22,04,15,7.80
2009,08,22,04,16,7.80
2009,08,22,04,17,7.80
2009,08,22,04,18,7.80
2009,08,22,04,19,7.80
2009,08,22,04,20,7.80
2009,08,22,04,21,7.70
2009,08,22,04,22,7.70
2009,08,22,04,23,7.70
2009,08,22,04,24,7.70
2009,08,22,04,25,7.70
2009,08,22,04,26,7.60
2009,08,22,04,27,7.60
2009,08,22,04,28,7.60
2009,08,22,04,29,7.60
2009,08,22,04,30,7.50
2009,08,22,04,31,7.50
2009,08,22,04,32,7.50
2009,08,22,04,33,7.50
2009,08,22,04,34,7.50
2009,08,22,04,35,7.40
2009,08,22,04,36,7.40
2009,08,22,04,37,7.40
2009,08,22,04,38,7.40
2009,08,22,04,39,7.40
2009,08,22,04,40,7.40
2009,08,22,04,41,7.40
2009,08,22,04,42,7.40
2009,08,22,04,43,7.40
2009,08,22,04,44,7.40
2009,08,22,04,45,7.30
2009,08,22,04,46,7.30
2009,08,22,04,47,7.30
2009,08,22,04,48,7.30
2009,08,22,04,49,7.30
2009,08,22,04,50,7.30
2009,08,22,04,51,7.30
2009,08,22,04,52,7.20
2009,08,22,04,53,7.20
2009,08,22,04,54,7.20
2009,08,22,04,55,7.10
2009,08,22,04,56,7.10
2009,08,22,04,57,7.10
2009,08,22,04,58,7.10
2009,08,22,04,59,7.00
2009,08,22,05,00,7.00
2009,08,22,05,01,7.00
2009,08,22,05,02,7.00
2009,08,22,05,03,7.00
2009,08,22,05,04,7.00
2009,08,22,05,05,7.00
2009,08,22,05,06,7.00
2009,08,22,05,07,7.00
2009,08,22,05,08,6.90
2009,08,22,05,09,6.90
2009,08,22,05,10,6.90
2009,08,22,05,11,6.90
2009,08,22,05,12,6.90
2009,08,22,05,13,6.90
2009,08,22,05,14,6.90
2009,08,22,05,15,6.90
2009,08,22,05,16,6.90
2009,08,22,05,17,6.90
2009,08,22,05,18,6.90
2009,08,22,05,19,6.90
2009,08,22,05,20,6.90
2009,08,22,05,21,6.90
2009,08,22,05,22,6.80
2009,08,22,05,23,6.80
2009,08,22,05,24,6.80
2009,08,22,05,25,6.80
2009,08,22,05,26,6.80
2009,08,22,05,27,6.80
2009,08,22,05,28,6.80
2009,08,22,05,29,6.80
2009,08,22,05,30,6.80
2009,08,22,05,31,6.80
2009,08,22,05,32,6.80
2009,08,22,05,33,6.80
2009,08,22,05,34,6.80
2009,08,22,05,35,6.80
2009,08,22,05,36,6.80
2009,08,22,05,37,6.80
2009,08,22,05,38,6.80
2009,08,22,05,39,6.80
2009,08,22,05,40,6.80
2009,08,22,05,41,6.80
2009,08,22,05,42,6.80
2009,08,22,05,43,6.80
2009,08,22,05,44,6.80
2009,08,22,05,45,6.70
2009,08,22,05,46,6.70
2009,08,22,05,47,6.70
2009,08,22,05,48,6.70
2009,08,22,05,49,6.70
2009,08,22,05,50,6.70
2009,08,22,05,51,6.60
2009,08,22,05,52,6.60
2009,08,22,05,53,6.60
2009,08,22,05,54,6.60
2009,08,22,05,55,6.60
2009,08,22,05,56,6.60
2009,08,22,05,57,6.60
2009,08,22,05,58,6.60
2009,08,22,05,59,6.60
2009,08,22,06,00,6.60
2009,08,22,06,01,6.60
2009,08,22,06,02,6.60
2009,08,22,06,03,6.60
2009,08,22,06,04,6.60
2009,08,22,06,05,6.60
2009,08,22,06,06,6.60
2009,08,22,06,07,6.60
2009,08,22,06,08,6.60
2009,08,22,06,09,6.60
2009,08,22,06,10,6.60
2009,08,22,06,11,6.60
2009,08,22,06,12,6.60
2009,08,22,06,13,6.60
2009,08,22,06,14,6.60
2009,08,22,06,15,6.60
2009,08,22,06,16,6.60
2009,08,22,06,17,6.60
2009,08,22,06,18,6.60
2009,08,22,06,19,6.60
2009,08,22,06,20,6.60
2009,08,22,06,21,6.60
2009,08,22,06,22,6.60
2009,08,22,06,23,6.60
2009,08,22,06,24,6.60
2009,08,22,06,25,6.60
2009,08,22,06,26,6.60
2009,08,22,06,27,6.60
2009,08,22,06,28,6.60
2009,08,22,06,29,6.60
2009,08,22,06,30,6.60
2009,08,22,06,31,6.60
2009,08,22,06,32,6.60
2009,08,22,06,33,6.60
2009,08,22,06,34,6.60
2009,08,22,06,35,6.60
2009,08,22,06,36,6.70
2009,08,22,06,37,6.70
2009,08,22,06,38,6.70
2009,08,22,06,39,6.60
2009,08,22,06,40,6.60
2009,08,22,06,41,6.60
2009,08,22,06,42,6.60
2009,08,22,06,43,6.60
2009,08,22,06,44,6.60
2009,08,22,06,45,6.60
2009,08,22,06,46,6.60
2009,08,22,06,47,6.60
2009,08,22,06,48,6.60
2009,08,22,06,49,6.60
2009,08,22,06,50,6.60
2009,08,22,06,51,6.60
2009,08,22,06,52,6.60
2009,08,22,06,53,6.60
2009,08,22,06,54,6.60
2009,08,22,06,55,6.60
2009,08,22,06,56,6.60
2009,08,22,06,57,6.60
2009,08,22,06,58,6.60
2009,08,22,06,59,6.60
2009,08,22,07,00,6.60
2009,08,22,07,01,6.60
2009,08,22,07,02,6.70
2009,08,22,07,03,6.70
2009,08,22,07,04,6.70
2009,08,22,07,05,6.80
2009,08,22,07,06,6.80
2009,08,22,07,07,6.80
2009,08,22,07,08,6.80
2009,08,22,07,09,6.80
2009,08,22,07,10,6.80
2009,08,22,07,11,6.80
2009,08,22,07,12,6.80
2009,08,22,07,13,6.80
2009,08,22,07,14,6.90
2009,08,22,07,15,6.90
2009,08,22,07,16,6.90
2009,08,22,07,17,7.00
2009,08,22,07,18,7.00
2009,08,22,07,19,7.00
2009,08,22,07,20,7.00
2009,08,22,07,21,7.10
2009,08,22,07,22,7.10
2009,08,22,07,23,7.10
2009,08,22,07,24,7.20
2009,08,22,07,25,7.20
2009,08,22,07,26,7.20
2009,08,22,07,27,7.30
2009,08,22,07,28,7.30
2009,08,22,07,29,7.30
2009,08,22,07,30,7.30
2009,08,22,07,31,7.30
2009,08,22,07,32,7.30
2009,08,22,07,33,7.40
2009,08,22,07,34,7.40
2009,08,22,07,35,7.40
2009,08,22,07,36,7.40
2009,08,22,07,37,7.40
2009,08,22,07,38,7.50
2009,08,22,07,39,7.50
2009,08,22,07,40,7.60
2009,08,22,07,41,7.70
2009,08,22,07,42,7.80
2009,08,22,07,43,7.80
2009,08,22,07,44,7.90
2009,08,22,07,45,8.00
2009,08,22,07,46,8.10
2009,08,22,07,47,8.20
2009,08,22,07,48,8.30
2009,08,22,07,49,8.40
2009,08,22,07,50,8.50
2009,08,22,07,51,8.60
2009,08,22,07,52,8.70
2009,08,22,07,53,8.80
2009,08,22,07,54,8.90
2009,08,22,07,55,9.00
2009,08,22,07,56,9.20
2009,08,22,07,57,9.20
2009,08,22,07,58,9.30
2009,08,22,07,59,9.40
2009,08,22,08,00,9.40
2009,08,22,08,01,9.50
2009,08,22,08,02,9.60
2009,08,22,08,03,9.70
2009,08,22,08,04,9.70
2009,08,22,08,05,9.80
2009,08,22,08,06,9.90
2009,08,22,08,07,10.00
2009,08,22,08,08,10.10
2009,08,22,08,09,10.30
2009,08,22,08,10,10.40
2009,08,22,08,11,10.50
2009,08,22,08,12,10.60
2009,08,22,08,13,10.70
2009,08,22,08,14,10.80
2009,08,22,08,15,10.90
2009,08,22,08,16,11.00
2009,08,22,08,17,11.10
2009,08,22,08,18,11.10
2009,08,22,08,19,11.20
2009,08,22,08,20,11.30
2009,08,22,08,21,11.40
2009,08,22,08,22,11.50
2009,08,22,08,23,11.60
2009,08,22,08,24,11.60
2009,08,22,08,25,11.60
2009,08,22,08,26,11.70
2009,08,22,08,27,11.80
2009,08,22,08,28,11.80
2009,08,22,08,29,11.90
2009,08,22,08,30,12.00
2009,08,22,08,31,12.10
2009,08,22,08,32,12.20
2009,08,22,08,33,12.30
2009,08,22,08,34,12.30
2009,08,22,08,35,12.50
2009,08,22,08,36,12.60
2009,08,22,08,37,12.70
2009,08,22,08,38,12.80
2009,08,22,08,39,12.90
2009,08,22,08,40,13.10
2009,08,22,08,41,13.20
2009,08,22,08,42,13.30
2009,08,22,08,43,13.50
2009,08,22,08,44,13.60
2009,08,22,08,45,13.70
2009,08,22,08,46,13.80
2009,08,22,08,47,13.90
2009,08,22,08,48,14.00
2009,08,22,08,49,14.10
2009,08,22,08,50,14.20
2009,08,22,08,51,14.40
2009,08,22,08,52,14.50
2009,08,22,08,53,14.60
2009,08,22,08,54,14.80
2009,08,22,08,55,14.90
2009,08,22,08,56,15.10
2009,08,22,08,57,15.20
2009,08,22,08,58,15.30
2009,08,22,08,59,15.40
2009,08,22,09,00,15.50
2009,08,22,09,01,15.60
2009,08,22,09,02,15.70
2009,08,22,09,03,15.80
2009,08,22,09,04,16.00
2009,08,22,09,05,16.10
2009,08,22,09,06,16.20
2009,08,22,09,07,16.30
2009,08,22,09,08,16.40
2009,08,22,09,09,16.60
2009,08,22,09,10,16.70
2009,08,22,09,11,16.70
2009,08,22,09,12,16.80
2009,08,22,09,13,16.90
2009,08,22,09,14,17.00
2009,08,22,09,15,17.10
2009,08,22,09,16,17.30
2009,08,22,09,17,17.30
2009,08,22,09,18,17.40
2009,08,22,09,19,17.50
2009,08,22,09,20,17.60
2009,08,22,09,21,17.70
2009,08,22,09,22,17.80
2009,08,22,09,23,17.90
2009,08,22,09,24,17.90
2009,08,22,09,25,18.00
2009,08,22,09,26,18.10
2009,08,22,09,27,18.20
2009,08,22,09,28,18.10
2009,08,22,09,29,18.10
2009,08,22,09,30,18.10
2009,08,22,09,31,18.00
2009,08,22,09,32,17.90
2009,08,22,09,33,17.90
2009,08,22,09,34,17.90
2009,08,22,09,35,17.90
2009,08,22,09,36,17.90
2009,08,22,09,37,17.90
2009,08,22,09,38,18.10
2009,08,22,09,39,18.10
2009,08,22,09,40,18.20
2009,08,22,09,41,18.20
2009,08,22,09,42,18.20
2009,08,22,09,43,18.30
2009,08,22,09,44,18.40
2009,08,22,09,45,18.30
2009,08,22,09,46,18.30
2009,08,22,09,47,18.30
2009,08,22,09,48,18.30
2009,08,22,09,49,18.30
2009,08,22,09,50,18.30
2009,08,22,09,51,18.30
2009,08,22,09,52,18.30
2009,08,22,09,53,18.30
2009,08,22,09,54,18.20
2009,08,22,09,55,18.20
2009,08,22,09,56,18.20
2009,08,22,09,57,18.20
2009,08,22,09,58,18.20
2009,08,22,09,59,18.20
2009,08,22,10,00,18.10
2009,08,22,10,01,18.20
2009,08,22,10,02,18.20
2009,08,22,10,03,18.20
2009,08,22,10,04,18.20
2009,08,22,10,05,18.20
2009,08,22,10,06,18.10
2009,08,22,10,07,18.00
2009,08,22,10,08,17.90
2009,08,22,10,09,17.90
2009,08,22,10,10,17.90
2009,08,22,10,11,17.90
2009,08,22,10,12,18.00
2009,08,22,10,13,18.10
2009,08,22,10,14,18.20
2009,08,22,10,15,18.30
2009,08,22,10,16,18.40
2009,08,22,10,17,18.50
2009,08,22,10,18,18.50
2009,08,22,10,19,18.60
2009,08,22,10,20,18.70
2009,08,22,10,21,18.70
2009,08,22,10,22,18.70
2009,08,22,10,23,18.80
2009,08,22,10,24,18.90
2009,08,22,10,25,19.00
2009,08,22,10,26,19.20
2009,08,22,10,27,19.20
2009,08,22,10,28,19.30
2009,08,22,10,29,19.30
2009,08,22,10,30,19.30
2009,08,22,10,31,19.30
2009,08,22,10,32,19.20
2009,08,22,10,33,19.20
2009,08,22,10,34,19.10
2009,08,22,10,35,18.90
2009,08,22,10,36,18.80
2009,08,22,10,37,18.80
2009,08,22,10,38,18.80
2009,08,22,10,39,18.80
2009,08,22,10,40,18.90
2009,08,22,10,41,19.10
2009,08,22,10,42,19.30
2009,08,22,10,43,19.50
2009,08,22,10,44,19.60
2009,08,22,10,45,19.70
2009,08,22,10,46,19.70
2009,08,22,10,47,19.70
2009,08,22,10,48,19.70
2009,08,22,10,49,19.70
2009,08,22,10,50,19.70
2009,08,22,10,51,19.80
2009,08,22,10,52,19.80
2009,08,22,10,53,19.80
2009,08,22,10,54,19.80
2009,08,22,10,55,19.80
2009,08,22,10,56,19.70
2009,08,22,10,57,19.60
2009,08,22,10,58,19.50
2009,08,22,10,59,19.40
2009,08,22,11,00,19.40
2009,08,22,11,01,19.40
2009,08,22,11,02,19.50
2009,08,22,11,03,19.50
2009,08,22,11,04,19.60
2009,08,22,11,05,19.70
2009,08,22,11,06,19.80
2009,08,22,11,07,19.80
2009,08,22,11,08,19.90
2009,08,22,11,09,20.00
2009,08,22,11,10,20.10
2009,08,22,11,11,20.20
2009,08,22,11,12,20.20
2009,08,22,11,13,20.20
2009,08,22,11,14,20.20
2009,08,22,11,15,20.20
2009,08,22,11,16,20.20
2009,08,22,11,17,20.20
2009,08,22,11,18,20.20
2009,08,22,11,19,20.10
2009,08,22,11,20,20.10
2009,08,22,11,21,20.10
2009,08,22,11,22,20.10
2009,08,22,11,23,20.10
2009,08,22,11,24,20.20
2009,08,22,11,25,20.20
2009,08,22,11,26,20.10
2009,08,22,11,27,20.10
2009,08,22,11,28,19.90
2009,08,22,11,29,19.90
2009,08,22,11,30,19.90
2009,08,22,11,31,19.90
2009,08,22,11,32,19.80
2009,08,22,11,33,19.80
2009,08,22,11,34,19.80
2009,08,22,11,35,19.80
2009,08,22,11,36,19.90
2009,08,22,11,37,19.90
2009,08,22,11,38,19.90
2009,08,22,11,39,19.90
2009,08,22,11,40,19.90
2009,08,22,11,41,19.90
2009,08,22,11,42,19.90
2009,08,22,11,43,19.90
2009,08,22,11,44,19.90
2009,08,22,11,45,19.90
2009,08,22,11,46,19.90
2009,08,22,11,47,19.90
2009,08,22,11,48,19.90
2009,08,22,11,49,20.10
2009,08,22,11,50,20.10
2009,08,22,11,51,20.00
2009,08,22,11,52,19.90
2009,08,22,11,53,19.80
2009,08,22,11,54,19.70
2009,08,22,11,55,19.60
2009,08,22,11,56,19.50
2009,08,22,11,57,19.50
2009,08,22,11,58,19.40
2009,08,22,11,59,19.40
2009,08,22,12,00,19.20
2009,08,22,12,01,19.10
2009,08,22,12,02,18.90
2009,08,22,12,03,18.90
2009,08,22,12,04,18.90
2009,08,22,12,05,18.90
2009,08,22,12,06,18.90
2009,08,22,12,07,18.90
2009,08,22,12,08,18.90
2009,08,22,12,09,19.00
2009,08,22,12,10,19.10
2009,08,22,12,11,19.10
2009,08,22,12,12,19.10
2009,08,22,12,13,19.20
2009,08,22,12,14,19.20
2009,08,22,12,15,19.30
2009,08,22,12,16,19.40
2009,08,22,12,17,19.50
2009,08,22,12,18,19.60
2009,08,22,12,19,19.70
2009,08,22,12,20,19.80
2009,08,22,12,21,19.90
2009,08,22,12,22,20.00
2009,08,22,12,23,20.20
2009,08,22,12,24,20.20
2009,08,22,12,25,20.20
2009,08,22,12,26,20.20
2009,08,22,12,27,20.10
2009,08,22,12,28,19.90
2009,08,22,12,29,19.80
2009,08,22,12,30,19.70
2009,08,22,12,31,19.70
2009,08,22,12,32,19.70
2009,08,22,12,33,19.60
2009,08,22,12,34,19.50
2009,08,22,12,35,19.50
2009,08,22,12,36,19.50
2009,08,22,12,37,19.40
2009,08,22,12,38,19.40
2009,08,22,12,39,19.60
2009,08,22,12,40,19.70
2009,08,22,12,41,19.80
2009,08,22,12,42,19.90
2009,08,22,12,43,19.80
2009,08,22,12,44,19.70
2009,08,22,12,45,19.70
2009,08,22,12,46,19.80
2009,08,22,12,47,19.80
2009,08,22,12,48,19.70
2009,08,22,12,49,19.70
2009,08,22,12,50,19.60
2009,08,22,12,51,19.40
2009,08,22,12,52,19.20
2009,08,22,12,53,19.10
2009,08,22,12,54,18.90
2009,08,22,12,55,18.90
2009,08,22,12,56,19.00
2009,08,22,12,57,19.10
2009,08,22,12,58,19.20
2009,08,22,12,59,19.30
2009,08,22,13,00,19.30
2009,08,22,13,01,19.40
2009,08,22,13,02,19.50
2009,08,22,13,03,19.50
2009,08,22,13,04,19.60
2009,08,22,13,05,19.60
2009,08,22,13,06,19.60
2009,08,22,13,07,19.60
2009,08,22,13,08,19.60
2009,08,22,13,09,19.60
2009,08,22,13,10,19.50
2009,08,22,13,11,19.40
2009,08,22,13,12,19.30
2009,08,22,13,13,19.20
2009,08,22,13,14,19.20
2009,08,22,13,15,19.20
2009,08,22,13,16,19.20
2009,08,22,13,17,19.20
2009,08,22,13,18,19.20
2009,08,22,13,19,19.20
2009,08,22,13,20,19.20
2009,08,22,13,21,19.20
2009,08,22,13,22,19.30
2009,08,22,13,23,19.30
2009,08,22,13,24,19.20
2009,08,22,13,25,19.10
2009,08,22,13,26,19.10
2009,08,22,13,27,19.10
2009,08,22,13,28,19.10
2009,08,22,13,29,19.20
2009,08,22,13,30,19.30
2009,08,22,13,31,19.40
2009,08,22,13,32,19.50
2009,08,22,13,33,19.40
2009,08,22,13,34,19.40
2009,08,22,13,35,19.40
2009,08,22,13,36,19.40
2009,08,22,13,37,19.50
2009,08,22,13,38,19.50
2009,08,22,13,39,19.50
2009,08,22,13,40,19.50
2009,08,22,13,41,19.60
2009,08,22,13,42,19.60
2009,08,22,13,43,19.60
2009,08,22,13,44,19.70
2009,08,22,13,45,19.90
2009,08,22,13,46,19.90
2009,08,22,13,47,19.90
2009,08,22,13,48,19.90
2009,08,22,13,49,19.80
2009,08,22,13,50,19.80
2009,08,22,13,51,19.90
2009,08,22,13,52,19.90
2009,08,22,13,53,20.00
2009,08,22,13,54,20.10
2009,08,22,13,55,20.10
2009,08,22,13,56,20.00
2009,08,22,13,57,19.90
2009,08,22,13,58,19.90
2009,08,22,13,59,19.90
2009,08,22,14,00,19.90
2009,08,22,14,01,19.90
2009,08,22,14,02,19.90
2009,08,22,14,03,19.90
2009,08,22,14,04,19.90
2009,08,22,14,05,19.90
2009,08,22,14,06,19.90
2009,08,22,14,07,19.90
2009,08,22,14,08,19.80
2009,08,22,14,09,19.90
2009,08,22,14,10,19.90
2009,08,22,14,11,20.10
2009,08,22,14,12,20.20
2009,08,22,14,13,20.30
2009,08,22,14,14,20.30
2009,08,22,14,15,20.40
2009,08,22,14,16,20.50
2009,08,22,14,17,20.60
2009,08,22,14,18,20.70
2009,08,22,14,19,20.80
2009,08,22,14,20,20.80
2009,08,22,14,21,20.80
2009,08,22,14,22,20.80
2009,08,22,14,23,20.80
2009,08,22,14,24,20.90
2009,08,22,14,25,20.80
2009,08,22,14,26,20.80
2009,08,22,14,27,20.60
2009,08,22,14,28,20.50
2009,08,22,14,29,20.50
2009,08,22,14,30,20.50
2009,08,22,14,31,20.50
2009,08,22,14,32,20.50
2009,08,22,14,33,20.40
2009,08,22,14,34,20.40
2009,08,22,14,35,20.30
2009,08,22,14,36,20.20
2009,08,22,14,37,20.00
2009,08,22,14,38,19.90
2009,08,22,14,39,19.90
2009,08,22,14,40,20.00
2009,08,22,14,41,20.10
2009,08,22,14,42,20.20
2009,08,22,14,43,20.20
2009,08,22,14,44,20.30
2009,08,22,14,45,20.40
2009,08,22,14,46,20.50
2009,08,22,14,47,20.50
2009,08,22,14,48,20.50
2009,08,22,14,49,20.50
2009,08,22,14,50,20.50
2009,08,22,14,51,20.50
2009,08,22,14,52,20.50
2009,08,22,14,53,20.50
2009,08,22,14,54,20.50
2009,08,22,14,55,20.60
2009,08,22,14,56,20.60
2009,08,22,14,57,20.70
2009,08,22,14,58,20.70
2009,08,22,14,59,20.80
2009,08,22,15,00,20.80
2009,08,22,15,01,20.90
2009,08,22,15,02,20.90
2009,08,22,15,03,20.90
2009,08,22,15,04,20.90
2009,08,22,15,05,20.80
2009,08,22,15,06,20.60
2009,08,22,15,07,20.50
2009,08,22,15,08,20.50
2009,08,22,15,09,20.40
2009,08,22,15,10,20.40
2009,08,22,15,11,20.30
2009,08,22,15,12,20.30
2009,08,22,15,13,20.40
2009,08,22,15,14,20.40
2009,08,22,15,15,20.40
2009,08,22,15,16,20.50
2009,08,22,15,17,20.60
2009,08,22,15,18,20.70
2009,08,22,15,19,20.80
2009,08,22,15,20,20.90
2009,08,22,15,21,21.00
2009,08,22,15,22,21.00
2009,08,22,15,23,20.90
2009,08,22,15,24,20.80
2009,08,22,15,25,20.80
2009,08,22,15,26,20.80
2009,08,22,15,27,20.80
2009,08,22,15,28,20.80
2009,08,22,15,29,20.80
2009,08,22,15,30,20.70
2009,08,22,15,31,20.60
2009,08,22,15,32,20.50
2009,08,22,15,33,20.50
2009,08,22,15,34,20.50
2009,08,22,15,35,20.50
2009,08,22,15,36,20.60
2009,08,22,15,37,20.70
2009,08,22,15,38,20.80
2009,08,22,15,39,20.80
2009,08,22,15,40,20.90
2009,08,22,15,41,21.00
2009,08,22,15,42,21.00
2009,08,22,15,43,21.10
2009,08,22,15,44,21.00
2009,08,22,15,45,20.90
2009,08,22,15,46,20.80
2009,08,22,15,47,20.80
2009,08,22,15,48,20.80
2009,08,22,15,49,20.60
2009,08,22,15,50,20.60
2009,08,22,15,51,20.60
2009,08,22,15,52,20.60
2009,08,22,15,53,20.50
2009,08,22,15,54,20.40
2009,08,22,15,55,20.40
2009,08,22,15,56,20.50
2009,08,22,15,57,20.50
2009,08,22,15,58,20.60
2009,08,22,15,59,20.60
2009,08,22,16,00,20.70
2009,08,22,16,01,20.80
2009,08,22,16,02,20.90
2009,08,22,16,03,20.90
2009,08,22,16,04,20.90
2009,08,22,16,05,20.80
2009,08,22,16,06,20.80
2009,08,22,16,07,20.80
2009,08,22,16,08,20.80
2009,08,22,16,09,20.80
2009,08,22,16,10,20.70
2009,08,22,16,11,20.60
2009,08,22,16,12,20.60
2009,08,22,16,13,20.60
2009,08,22,16,14,20.50
2009,08,22,16,15,20.40
2009,08,22,16,16,20.40
2009,08,22,16,17,20.30
2009,08,22,16,18,20.20
2009,08,22,16,19,20.20
2009,08,22,16,20,20.30
2009,08,22,16,21,20.40
2009,08,22,16,22,20.40
2009,08,22,16,23,20.50
2009,08,22,16,24,20.40
2009,08,22,16,25,20.40
2009,08,22,16,26,20.50
2009,08,22,16,27,20.50
2009,08,22,16,28,20.50
2009,08,22,16,29,20.50
2009,08,22,16,30,20.50
2009,08,22,16,31,20.50
2009,08,22,16,32,20.50
2009,08,22,16,33,20.50
2009,08,22,16,34,20.50
2009,08,22,16,35,20.60
2009,08,22,16,36,20.60
2009,08,22,16,37,20.70
2009,08,22,16,38,20.60
2009,08,22,16,39,20.50
2009,08,22,16,40,20.50
2009,08,22,16,41,20.50
2009,08,22,16,42,20.40
2009,08,22,16,43,20.30
2009,08,22,16,44,20.20
2009,08,22,16,45,20.20
2009,08,22,16,46,20.20
2009,08,22,16,47,20.20
2009,08,22,16,48,20.20
2009,08,22,16,49,20.20
2009,08,22,16,50,20.20
2009,08,22,16,51,20.20
2009,08,22,16,52,20.20
2009,08,22,16,53,20.10
2009,08,22,16,54,20.10
2009,08,22,16,55,20.10
2009,08,22,16,56,20.10
2009,08,22,16,57,20.10
2009,08,22,16,58,20.10
2009,08,22,16,59,20.10
2009,08,22,17,00,20.00
2009,08,22,17,01,19.90
2009,08,22,17,02,19.90
2009,08,22,17,03,19.90
2009,08,22,17,04,19.90
2009,08,22,17,05,19.90
2009,08,22,17,06,19.90
2009,08,22,17,07,19.90
2009,08,22,17,08,19.90
2009,08,22,17,09,19.90
2009,08,22,17,10,19.90
2009,08,22,17,11,19.90
2009,08,22,17,12,19.90
2009,08,22,17,13,19.90
2009,08,22,17,14,19.90
2009,08,22,17,15,19.90
2009,08,22,17,16,19.90
2009,08,22,17,17,19.90
2009,08,22,17,18,20.10
2009,08,22,17,19,20.10
2009,08,22,17,20,20.20
2009,08,22,17,21,20.20
2009,08,22,17,22,20.20
2009,08,22,17,23,20.20
2009,08,22,17,24,20.20
2009,08,22,17,25,20.20
2009,08,22,17,26,20.30
2009,08,22,17,27,20.30
2009,08,22,17,28,20.20
2009,08,22,17,29,20.20
2009,08,22,17,30,20.30
2009,08,22,17,31,20.40
2009,08,22,17,32,20.50
2009,08,22,17,33,20.60
2009,08,22,17,34,20.70